Content
SEND FEEDBACK

Daily
Averages
Monthly
Summary
Turkey

GAZIANTEP, TURKEY


Home > Middle East > Turkey
Elevation: 2805 feet     Latitude: 37 05N     Longitude: 037 22E

WEATHER
 
SELECT A DAY
Number of Records: 207,155;   Date Range: 7/1/96 - 8/12/14
 
SHARE

PRINT THIS DATA

[ ← Previous Day ]
WEATHER ALMANAC - SEPTEMBER 1, 2013
[ Next Day → ]
[ °C ]   °F
Weather ElementAverageHighLow
Temperature80.5 °F95 °F (2:50 pm)60.8 °F (6:20 am)
Dewpoint50.5 °F60.8 °F (9:20 pm)33.8 °F (1:50 pm)
Humidity41.8 %82 % (6:20 am)7 % (3:00 pm)
Barometer29.81 in29.86 in (9:50 pm)29.65 in (3:00 pm)
Wind Speed4 mph10.4 mph (6:50 pm)
Wind Gust16.1 mph (11:20 pm)
Weather ElementAverage
Visibility6 mi
Wind DirectionESE (111.6 °)

Weather ElementTotal
Precipitation---
Cooling Degree Days12.9 (Base 65)
Growing Degree Days27.9 (Base 50)
Averaged from 50 records on September 1, 2013
WEATHER CONDITIONS BREAKOUT
WIND DIRECTION BREAKOUT
WEATHER BY HOUR - SEPTEMBER 1, 2013
[ °C ]   °F
Local TimeTemperatureDewpointHumidityBarometerVisibilityWind DirectionWind SpeedGust SpeedPrecipitationEventsConditions
12:50 AM71.6 °F57.2 °F60 %29.80 inVariable1.2 mphClear
1:20 AM69.8 °F57.2 °F64 %29.80 inCalmClear
1:50 AM68.0 °F55.4 °F64 %29.80 inCalmClear
2:20 AM66.2 °F57.2 °F73 %29.80 inCalmClear
2:50 AM66.2 °F55.4 °F68 %29.80 inCalmClear
3:20 AM66.2 °F57.2 °F73 %29.80 inWest (280°)3.5 mphClear
3:50 AM68.0 °F55.4 °F64 %29.80 inVariable1.2 mphClear
4:20 AM66.2 °F55.4 °F68 %29.80 inCalmClear
4:50 AM64.4 °F55.4 °F73 %29.80 inCalmClear
5:20 AM66.2 °F55.4 °F68 %29.80 inCalmClear
5:50 AM64.4 °F55.4 °F73 %29.83 inCalmClear
6:20 AM60.8 °F55.4 °F82 %29.83 inCalmClear
6:50 AM64.4 °F55.4 °F73 %29.83 inCalmClear
7:20 AM66.2 °F55.4 °F68 %29.83 inCalmClear
7:50 AM73.4 °F59.0 °F61 %29.83 inCalmClear
8:20 AM77.0 °F57.2 °F50 %29.83 inCalmClear
8:50 AM80.6 °F57.2 °F45 %29.83 inCalmClear
9:00 AM81.0 °F56.0 °F33 %29.70 in6.0 miCalm
9:20 AM84.2 °F55.4 °F37 %29.83 inCalmClear
9:50 AM86.0 °F53.6 °F33 %29.83 inVariable1.2 mphClear
10:20 AM87.8 °F48.2 °F25 %29.83 inVariable2.3 mphClear
10:50 AM89.6 °F42.8 °F20 %29.83 inSSW (210°)6.9 mphClear
11:20 AM91.4 °F41.0 °F17 %29.83 inSSW (200°)5.8 mphClear
11:50 AM91.4 °F37.4 °F15 %29.83 inVariable3.5 mphClear
12:20 PM93.2 °F35.6 °F13 %29.83 inVariable3.5 mphClear
12:50 PM93.2 °F37.4 °F14 %29.83 inSSW (200°)4.6 mphClear
1:20 PM93.2 °F37.4 °F14 %29.80 inSouth (190°)5.8 mphClear
1:50 PM93.2 °F33.8 °F12 %29.80 inSouth (170°)6.9 mphClear
2:20 PM93.2 °F35.6 °F13 %29.80 inVariable5.8 mphClear
2:50 PM95.0 °F39.2 °F14 %29.80 inSouth (190°)6.9 mphClear
3:00 PM94.0 °F36.0 °F7 %29.65 in6.0 miSouth (190°)6.9 mph
3:20 PM95.0 °F35.6 °F12 %29.77 inWSW (240°)9.2 mphClear
3:50 PM95.0 °F39.2 °F14 %29.77 inSW (220°)8.1 mphClear
4:20 PM93.2 °F39.2 °F15 %29.80 inSSW (210°)8.1 mphClear
4:50 PM93.2 °F35.6 °F13 %29.80 inSW (220°)8.1 mphClear
5:20 PM93.2 °F42.8 °F17 %29.80 inWSW (250°)6.9 mphClear
5:50 PM91.4 °F46.4 °F21 %29.80 inWSW (240°)9.2 mphClear
6:20 PM89.6 °F50.0 °F26 %29.80 inWSW (240°)8.1 mphClear
6:50 PM86.0 °F50.0 °F29 %29.80 inSW (230°)10.4 mphClear
7:20 PM84.2 °F51.8 °F33 %29.80 inWSW (240°)9.2 mphClear
7:50 PM82.4 °F53.6 °F37 %29.83 inSW (230°)8.1 mphClear
8:20 PM80.6 °F57.2 °F45 %29.83 inSW (230°)9.2 mphClear
8:50 PM80.6 °F59.0 °F48 %29.83 inWSW (250°)5.8 mphClear
9:00 PM80.0 °F58.0 °F37 %29.70 in6.0 miWSW (250°)5.8 mph
9:20 PM80.6 °F60.8 °F51 %29.83 inWest (280°)8.1 mphClear
9:50 PM78.8 °F60.8 °F54 %29.86 inVariable2.3 mphClear
10:20 PM75.2 °F60.8 °F61 %29.86 inWSW (250°)5.8 mphClear
10:50 PM75.2 °F60.8 °F61 %29.86 inWest (260°)6.9 mphClear
11:20 PM75.2 °F59.0 °F57 %29.86 inVariable2.3 mph16.1 mphClear
11:50 PM71.6 °F59.0 °F64 %29.86 inCalmClear
Hourly data recorded from LTAJ, located miles away from Gaziantep, Turkey







STORIES FROM OUR PARTNERS